Spokane, WA

3:26 PM PDT on June 22, 2017 (GMT -0700)
Spokane International

Weather History for KGEG - September, 2011

Change the Weather History Date:

Friday, September 23, 2011

  Actual Average Record
Temperature  
Mean Temperature 72 °F 57 °F  
Max Temperature 85 °F 70 °F 91 °F (1905)
Min Temperature 58 °F 45 °F 22 °F (2000)
Degree Days  
Heating Degree Days 0 8  
Month to date heating degree days 59 117  
Since 1 July heating degree days 107 182  
Cooling Degree Days 7 1  
Month to date cooling degree days 98 36  
Year to date cooling degree days 419 447  
Growing Degree Days 22 (Base 50)    
Moisture  
Dew Point 37 °F    
Average Humidity 31    
Maximum Humidity 44    
Minimum Humidity 17    
Precipitation  
Precipitation 0.00 in 0.03 in 1.15 in (1892)
Month to date precipitation 0.03 0.51  
Year to date precipitation 11.82 10.62  
Snow  
Snow 0.00 in 0.00 in 1.40 in (1926)
Month to date snowfall 0.0 0.0  
Since 1 July snowfall 0.0 0.0  
Since 1 September snowfall 0.0 0.0  
Snow Depth 0.00 in    
Sea Level Pressure  
Sea Level Pressure 30.02 in    
Wind  
Wind Speed 7 mph (South)    
Max Wind Speed 18 mph    
Max Gust Speed 23 mph    
Visibility 10 miles    
Events      
T = Trace of Precipitation, MM = Missing Value Source: NWS Daily Summary

Daily Weather History Graph

Daily Weather History Graph

Search for Another Location

Airport or City:

Trip Planner

Search our weather history database for the weather conditions in past years. The results will help you decide how hot, cold, wet, or windy it might be!

Date:

Astronomy

Sep. 23, 2011 Rise Set
Actual Time 6:37 AM PDT 6:46 PM PDT
Civil Twilight 6:07 AM PDT 7:16 PM PDT
Nautical Twilight 5:31 AM PDT 7:52 PM PDT
Astronomical Twilight 4:53 AM PDT 8:30 PM PDT
Moon 1:52 AM PDT (9/23) 4:33 PM PDT (9/23)
Length of Visible Light 13h 09m
Length of Day
12h 08m
Waning Crescent, 18% of the Moon is Illuminated
Sep 23
Waning Crescent
Sep 27
New
Oct 3
First Quarter
Oct 11
Full
Oct 19
Last Quarter

Hourly Weather History & Observations

Time (PDT) Temp. Dew Point Humidity Pressure Visibility Wind Dir Wind Speed Gust Speed Precip Events Conditions
12:53 AM 62.6 °F 37.4 °F 39% 30.08 in 10.0 mi SSE 8.1 mph - N/A   Scattered Clouds
1:53 AM 62.6 °F 35.6 °F 37% 30.08 in 10.0 mi SSE 6.9 mph - N/A   Partly Cloudy
2:53 AM 62.1 °F 36.0 °F 38% 30.03 in 10.0 mi SSE 8.1 mph - N/A   Partly Cloudy
3:53 AM 61.0 °F 36.0 °F 39% 30.04 in 10.0 mi SSE 8.1 mph - N/A   Partly Cloudy
4:53 AM 61.0 °F 36.0 °F 39% 30.05 in 10.0 mi SSE 10.4 mph - N/A   Scattered Clouds
5:53 AM 59.0 °F 37.0 °F 44% 30.05 in 10.0 mi SSE 6.9 mph - N/A   Mostly Cloudy
6:53 AM 60.1 °F 37.9 °F 44% 30.06 in 10.0 mi SSE 6.9 mph - N/A   Mostly Cloudy
7:53 AM 63.0 °F 39.0 °F 41% 30.07 in 10.0 mi Calm Calm - N/A   Mostly Cloudy
8:53 AM 66.9 °F 41.0 °F 39% 30.08 in 10.0 mi Calm Calm - N/A   Scattered Clouds
9:53 AM 73.0 °F 39.0 °F 29% 30.08 in 10.0 mi SSE 8.1 mph - N/A   Partly Cloudy
10:53 AM 75.9 °F 39.0 °F 26% 30.06 in 10.0 mi South 5.8 mph - N/A   Partly Cloudy
11:53 AM 80.1 °F 37.0 °F 21% 30.05 in 10.0 mi SSW 10.4 mph 17.3 mph N/A   Partly Cloudy
12:53 PM 82.9 °F 37.0 °F 19% 30.04 in 10.0 mi SSW 12.7 mph 18.4 mph N/A   Partly Cloudy
1:53 PM 84.0 °F 36.0 °F 18% 30.01 in 10.0 mi SW 13.8 mph 21.9 mph N/A   Partly Cloudy
2:53 PM 84.9 °F 36.0 °F 17% 30.00 in 10.0 mi WSW 16.1 mph - N/A   Partly Cloudy
3:53 PM 84.9 °F 36.0 °F 17% 29.99 in 10.0 mi SW 13.8 mph - N/A   Partly Cloudy
4:53 PM 84.0 °F 37.9 °F 19% 29.97 in 10.0 mi SSW 11.5 mph - N/A   Partly Cloudy
5:53 PM 82.9 °F 39.0 °F 21% 29.95 in 10.0 mi SSW 8.1 mph - N/A   Clear
6:53 PM 78.1 °F 39.0 °F 25% 29.95 in 10.0 mi South 5.8 mph - N/A   Partly Cloudy
7:53 PM 75.0 °F 37.9 °F 26% 29.95 in 10.0 mi SSE 4.6 mph - N/A   Clear
8:53 PM 68.0 °F 37.9 °F 33% 29.96 in 10.0 mi South 3.5 mph - N/A   Clear
9:53 PM 64.0 °F 39.0 °F 40% 29.95 in 10.0 mi Calm Calm - N/A   Clear
10:53 PM 66.9 °F 35.1 °F 31% 29.95 in 10.0 mi SSE 5.8 mph - N/A   Clear
11:53 PM 64.0 °F 34.0 °F 33% 29.94 in 10.0 mi SSE 5.8 mph - N/A   Clear